Location: Stara Lesna
(49.1528°N, 20.2911°E)
Time: 23:05:44
(UTC+02:00)

BREEZE-M DEB (TANK) - Pass Details

Date: 21 September 2019
Orbit: 300 x 13967 km, 46.1° (Epoch: 21 October)

Event Time Altitude Azimuth Distance (km) Brightness Sun altitude
Exits shadow 04:11:54 29° 246° (WSW) 3,172 5.5 -21.4°
Maximum altitude 04:17:28 65° 175° (S) 1,228 3.9 -20.6°
Drops below altitude 10° 04:21:34 10° 92° (E) 2,012 6.1 -20.0°
Sets 04:22:57 0° 89° (E) 2,613 6.9 -19.8°
